Time,TemperatureF,DewpointF,PressureIn,WindDirection,WindDirectionDegrees,WindSpeedMPH,WindSpeedGustMPH,Humidity,HourlyPrecipIn,Conditions,Clouds,dailyrainin,SoftwareType,DateUTC
2013-01-26 00:00:00,12.2,-2.0,30.08,ENE,67,0.0,4.0,52,0.00,,---,0.00,VWS V14.01,2013-01-26 05:00:00,
2013-01-26 00:01:00,12.1,-2.5,30.08,NW,324,2.0,4.0,51,0.00,,---,0.00,VWS V14.01,2013-01-26 05:01:00,
2013-01-26 00:06:00,12.0,-2.7,30.08,NE,47,0.0,4.0,51,0.00,,---,0.00,VWS V14.01,2013-01-26 05:06:00,
2013-01-26 00:11:00,11.9,-2.3,30.08,NE,46,1.0,4.0,52,0.00,,---,0.00,VWS V14.01,2013-01-26 05:11:00,
2013-01-26 00:16:00,11.9,-1.5,30.08,NNW,329,0.0,4.0,54,0.00,,---,0.00,VWS V14.01,2013-01-26 05:16:00,
2013-01-26 00:21:00,11.8,-1.6,30.08,NE,51,0.0,4.0,54,0.00,,---,0.00,VWS V14.01,2013-01-26 05:21:00,
2013-01-26 00:26:00,11.7,-1.3,30.08,NNE,12,0.0,5.0,55,0.00,,---,0.00,VWS V14.01,2013-01-26 05:26:00,
2013-01-26 00:30:00,10.6,-2.8,30.09,NNW,330,0.0,5.0,54,0.00,,---,0.00,VWS V14.01,2013-01-26 05:30:00,
2013-01-26 00:31:00,11.6,-1.4,30.08,NNE,27,0.0,5.0,55,0.00,,---,0.00,VWS V14.01,2013-01-26 05:31:00,
2013-01-26 00:36:00,11.5,-1.9,30.08,NNE,22,0.0,2.0,54,0.00,,---,0.00,VWS V14.01,2013-01-26 05:36:00,
2013-01-26 00:41:00,11.5,-1.5,30.08,NNW,328,1.0,2.0,55,0.00,,---,0.00,VWS V14.01,2013-01-26 05:41:00,
2013-01-26 00:46:00,11.4,-1.6,30.08,NNW,329,0.0,3.0,55,0.00,,---,0.00,VWS V14.01,2013-01-26 05:46:00,
2013-01-26 00:51:00,11.3,-2.1,30.08,NNE,17,0.0,5.0,54,0.00,,---,0.00,VWS V14.01,2013-01-26 05:51:00,
2013-01-26 00:56:00,11.2,-1.8,30.08,NNE,15,0.0,5.0,55,0.00,,---,0.00,VWS V14.01,2013-01-26 05:56:00,
2013-01-26 01:00:00,10.0,-2.9,30.08,North,3,0.0,4.0,55,0.00,,---,0.00,VWS V14.01,2013-01-26 06:00:00,
2013-01-26 01:01:00,11.1,-2.3,30.09,NNW,331,0.0,5.0,54,0.00,,---,0.00,VWS V14.01,2013-01-26 06:01:00,
2013-01-26 01:06:00,11.0,-2.4,30.09,NW,319,0.0,2.0,54,0.00,,---,0.00,VWS V14.01,2013-01-26 06:06:00,
2013-01-26 01:11:00,11.0,-2.4,30.09,NNW,340,0.0,3.0,54,0.00,,---,0.00,VWS V14.01,2013-01-26 06:11:00,
2013-01-26 01:16:00,10.9,-2.5,30.09,NNW,335,0.0,4.0,54,0.00,,---,0.00,VWS V14.01,2013-01-26 06:16:00,
2013-01-26 01:21:00,10.8,-2.6,30.09,North,358,0.0,4.0,54,0.00,,---,0.00,VWS V14.01,2013-01-26 06:21:00,
2013-01-26 01:26:00,10.7,-2.7,30.09,NNW,345,1.0,5.0,54,0.00,,---,0.00,VWS V14.01,2013-01-26 06:26:00,
2013-01-26 01:30:00,9.5,-2.7,30.07,NW,323,0.0,4.0,57,0.00,,---,0.00,VWS V14.01,2013-01-26 06:30:00,
2013-01-26 01:31:00,10.6,-2.8,30.09,NNW,329,1.0,5.0,54,0.00,,---,0.00,VWS V14.01,2013-01-26 06:31:00,
2013-01-26 01:36:00,10.5,-2.8,30.09,NNW,345,0.0,3.0,54,0.00,,---,0.00,VWS V14.01,2013-01-26 06:36:00,
2013-01-26 01:41:00,10.4,-2.9,30.09,NNW,336,0.0,4.0,54,0.00,,---,0.00,VWS V14.01,2013-01-26 06:41:00,
2013-01-26 01:46:00,10.3,-3.0,30.09,NE,36,0.0,4.0,54,0.00,,---,0.00,VWS V14.01,2013-01-26 06:46:00,
2013-01-26 01:51:00,10.2,-3.1,30.09,NNW,329,0.0,4.0,54,0.00,,---,0.00,VWS V14.01,2013-01-26 06:51:00,
2013-01-26 01:55:00,10.1,-2.8,30.09,WNW,290,0.0,4.0,55,0.00,,---,0.00,VWS V14.01,2013-01-26 06:55:00,
2013-01-26 02:00:00,10.0,-2.9,30.08,NNW,328,1.0,4.0,55,0.00,,---,0.00,VWS V14.01,2013-01-26 07:00:00,
2013-01-26 02:05:00,10.0,-2.9,30.08,ENE,72,1.0,2.0,55,0.00,,---,0.00,VWS V14.01,2013-01-26 07:05:00,
2013-01-26 02:10:00,9.9,-2.7,30.08,NNW,330,0.0,3.0,56,0.00,,---,0.00,VWS V14.01,2013-01-26 07:10:00,
2013-01-26 02:15:00,9.9,-2.7,30.08,NNE,15,0.0,3.0,56,0.00,,---,0.00,VWS V14.01,2013-01-26 07:15:00,
2013-01-26 02:20:00,9.8,-2.4,30.08,NNW,346,0.0,3.0,57,0.00,,---,0.00,VWS V14.01,2013-01-26 07:20:00,
2013-01-26 02:25:00,9.7,-2.5,30.08,NNW,338,1.0,3.0,57,0.00,,---,0.00,VWS V14.01,2013-01-26 07:25:00,
2013-01-26 02:30:00,9.5,-2.7,30.07,NNW,332,3.0,4.0,57,0.00,,---,0.00,VWS V14.01,2013-01-26 07:30:00,
2013-01-26 02:35:00,9.4,-2.8,30.07,NW,324,1.0,3.0,57,0.00,,---,0.00,VWS V14.01,2013-01-26 07:35:00,
2013-01-26 02:40:00,9.2,-2.6,30.07,North,349,0.0,3.0,58,0.00,,---,0.00,VWS V14.01,2013-01-26 07:40:00,
2013-01-26 02:45:00,9.1,-2.7,30.07,WNW,295,0.0,3.0,58,0.00,,---,0.00,VWS V14.01,2013-01-26 07:45:00,
2013-01-26 02:50:00,8.9,-3.2,30.07,NNW,347,0.0,4.0,57,0.00,,---,0.00,VWS V14.01,2013-01-26 07:50:00,
2013-01-26 02:55:00,8.9,-3.2,30.07,NE,44,0.0,4.0,57,0.00,,---,0.00,VWS V14.01,2013-01-26 07:55:00,
2013-01-26 03:00:00,8.7,-3.4,30.06,NE,39,0.0,4.0,57,0.00,,---,0.00,VWS V14.01,2013-01-26 08:00:00,
2013-01-26 03:05:00,8.6,-3.5,30.06,NNE,27,0.0,3.0,57,0.00,,---,0.00,VWS V14.01,2013-01-26 08:05:00,
2013-01-26 03:10:00,8.5,-4.0,30.06,WNW,297,0.0,3.0,56,0.00,,---,0.00,VWS V14.01,2013-01-26 08:10:00,
2013-01-26 03:15:00,8.5,-4.0,30.06,North,352,3.0,4.0,56,0.00,,---,0.00,VWS V14.01,2013-01-26 08:15:00,
2013-01-26 03:20:00,8.4,-4.4,30.06,ESE,107,0.0,7.0,55,0.00,,---,0.00,VWS V14.01,2013-01-26 08:20:00,
2013-01-26 03:25:00,8.4,-4.1,30.05,NNW,334,0.0,7.0,56,0.00,,---,0.00,VWS V14.01,2013-01-26 08:25:00,
2013-01-26 03:30:00,8.4,-4.1,30.05,ENE,75,0.0,7.0,56,0.00,,---,0.00,VWS V14.01,2013-01-26 08:30:00,
2013-01-26 03:35:00,8.3,-4.2,30.05,NW,319,3.0,4.0,56,0.00,,---,0.00,VWS V14.01,2013-01-26 08:35:00,
2013-01-26 03:40:00,8.3,-4.2,30.05,NNE,32,0.0,4.0,56,0.00,,---,0.00,VWS V14.01,2013-01-26 08:40:00,
2013-01-26 03:45:00,8.3,-3.8,30.05,NE,49,0.0,5.0,57,0.00,,---,0.00,VWS V14.01,2013-01-26 08:45:00,
2013-01-26 03:50:00,8.2,-3.9,30.05,NNE,15,0.0,5.0,57,0.00,,---,0.00,VWS V14.01,2013-01-26 08:50:00,
2013-01-26 03:55:00,8.1,-4.0,30.05,ENE,58,4.0,7.0,57,0.00,,---,0.00,VWS V14.01,2013-01-26 08:55:00,
2013-01-26 04:00:00,8.1,-4.0,30.05,ENE,70,0.0,7.0,57,0.00,,---,0.00,VWS V14.01,2013-01-26 09:00:00,
2013-01-26 04:05:00,8.0,-4.1,30.04,East,86,0.0,1.0,57,0.00,,---,0.00,VWS V14.01,2013-01-26 09:05:00,
2013-01-26 04:10:00,8.0,-4.1,30.04,ENE,58,2.0,6.0,57,0.00,,---,0.00,VWS V14.01,2013-01-26 09:10:00,
2013-01-26 04:15:00,7.9,-4.2,30.04,NNW,332,1.0,6.0,57,0.00,,---,0.00,VWS V14.01,2013-01-26 09:15:00,
2013-01-26 04:20:00,7.9,-4.2,30.03,SE,124,0.0,6.0,57,0.00,,---,0.00,VWS V14.01,2013-01-26 09:20:00,
2013-01-26 04:25:00,7.8,-4.6,30.04,ENE,65,0.0,6.0,56,0.00,,---,0.00,VWS V14.01,2013-01-26 09:25:00,
2013-01-26 04:30:00,7.8,-4.2,30.03,ENE,65,0.0,6.0,57,0.00,,---,0.00,VWS V14.01,2013-01-26 09:30:00,
2013-01-26 04:35:00,7.9,-4.2,30.03,NW,306,0.0,3.0,57,0.00,,---,0.00,VWS V14.01,2013-01-26 09:35:00,
2013-01-26 04:40:00,7.8,-4.6,30.03,NW,321,3.0,6.0,56,0.00,,---,0.00,VWS V14.01,2013-01-26 09:40:00,
2013-01-26 04:45:00,7.9,-4.9,30.03,NNW,336,1.0,6.0,55,0.00,,---,0.00,VWS V14.01,2013-01-26 09:45:00,
2013-01-26 04:50:00,7.9,-4.5,30.02,ENE,61,0.0,6.0,56,0.00,,---,0.00,VWS V14.01,2013-01-26 09:50:00,
2013-01-26 04:55:00,7.8,-4.6,30.02,North,5,1.0,6.0,56,0.00,,---,0.00,VWS V14.01,2013-01-26 09:55:00,
2013-01-26 05:00:00,7.8,-4.6,30.02,NW,323,1.0,6.0,56,0.00,,---,0.00,VWS V14.01,2013-01-26 10:00:00,
2013-01-26 05:05:00,7.8,-5.4,30.02,NNE,22,0.0,4.0,54,0.00,,---,0.00,VWS V14.01,2013-01-26 10:05:00,
2013-01-26 05:10:00,7.9,-5.3,30.02,NE,55,3.0,6.0,54,0.00,,---,0.00,VWS V14.01,2013-01-26 10:10:00,
2013-01-26 05:15:00,8.0,-5.2,30.02,NNW,342,0.0,6.0,54,0.00,,---,0.00,VWS V14.01,2013-01-26 10:15:00,
2013-01-26 05:20:00,8.0,-4.8,30.02,NE,46,0.0,6.0,55,0.00,,---,0.00,VWS V14.01,2013-01-26 10:20:00,
2013-01-26 05:25:00,7.9,-4.9,30.02,NE,39,0.0,6.0,55,0.00,,---,0.00,VWS V14.01,2013-01-26 10:25:00,
2013-01-26 05:30:00,7.8,-4.6,30.03,NNE,24,0.0,6.0,56,0.00,,---,0.00,VWS V14.01,2013-01-26 10:30:00,
2013-01-26 05:35:00,7.8,-4.6,30.03,NNW,329,0.0,4.0,56,0.00,,---,0.00,VWS V14.01,2013-01-26 10:35:00,
2013-01-26 05:40:00,7.7,-4.3,30.03,NW,322,0.0,4.0,57,0.00,,---,0.00,VWS V14.01,2013-01-26 10:40:00,
2013-01-26 05:45:00,7.6,-4.4,30.03,NNW,336,0.0,4.0,57,0.00,,---,0.00,VWS V14.01,2013-01-26 10:45:00,
2013-01-26 05:50:00,7.6,-4.4,30.03,NE,35,0.0,4.0,57,0.00,,---,0.00,VWS V14.01,2013-01-26 10:50:00,
2013-01-26 05:55:00,7.6,-4.1,30.03,NNW,331,0.0,4.0,58,0.00,,---,0.00,VWS V14.01,2013-01-26 10:55:00,
2013-01-26 06:00:00,7.5,-4.5,30.03,ESE,102,0.0,4.0,57,0.00,,---,0.00,VWS V14.01,2013-01-26 11:00:00,
2013-01-26 06:05:00,7.4,-4.3,30.03,West,281,0.0,4.0,58,0.00,,---,0.00,VWS V14.01,2013-01-26 11:05:00,
2013-01-26 06:10:00,7.4,-4.3,30.04,NW,307,0.0,4.0,58,0.00,,---,0.00,VWS V14.01,2013-01-26 11:10:00,
2013-01-26 06:15:00,7.3,-4.4,30.04,NE,39,0.0,4.0,58,0.00,,---,0.00,VWS V14.01,2013-01-26 11:15:00,
2013-01-26 06:20:00,7.2,-4.5,30.04,NW,316,0.0,5.0,58,0.00,,---,0.00,VWS V14.01,2013-01-26 11:20:00,
2013-01-26 06:25:00,7.1,-4.2,30.04,North,10,1.0,5.0,59,0.00,,---,0.00,VWS V14.01,2013-01-26 11:25:00,
2013-01-26 06:30:00,7.0,-4.3,30.04,East,86,0.0,5.0,59,0.00,,---,0.00,VWS V14.01,2013-01-26 11:30:00,
2013-01-26 06:35:00,6.9,-4.0,30.04,NNW,348,0.0,2.0,60,0.00,,---,0.00,VWS V14.01,2013-01-26 11:35:00,
2013-01-26 06:40:00,6.7,-4.2,30.04,NNW,338,2.0,6.0,60,0.00,,---,0.00,VWS V14.01,2013-01-26 11:40:00,
2013-01-26 06:45:00,6.6,-4.7,30.04,NW,321,0.0,7.0,59,0.00,,---,0.00,VWS V14.01,2013-01-26 11:45:00,
2013-01-26 06:50:00,6.5,-4.8,30.04,NNW,340,7.0,7.0,59,0.00,,---,0.00,VWS V14.01,2013-01-26 11:50:00,
2013-01-26 06:55:00,6.4,-4.5,30.04,North,358,0.0,8.0,60,0.00,,---,0.00,VWS V14.01,2013-01-26 11:55:00,
2013-01-26 07:00:00,6.3,-4.6,30.04,NW,308,0.0,8.0,60,0.00,,---,0.00,VWS V14.01,2013-01-26 12:00:00,
2013-01-26 07:05:00,6.2,-4.4,30.04,NW,309,0.0,2.0,61,0.00,,---,0.00,VWS V14.01,2013-01-26 12:05:00,
2013-01-26 07:10:00,6.2,-4.4,30.04,North,350,0.0,2.0,61,0.00,,---,0.00,VWS V14.01,2013-01-26 12:10:00,
2013-01-26 07:15:00,6.1,-4.4,30.04,NNE,25,0.0,6.0,61,0.00,,---,0.00,VWS V14.01,2013-01-26 12:15:00,
2013-01-26 07:20:00,6.2,-4.4,30.04,ENE,64,0.0,6.0,61,0.00,,---,0.00,VWS V14.01,2013-01-26 12:20:00,
2013-01-26 07:25:00,6.3,-4.3,30.04,NW,310,1.0,6.0,61,0.00,,---,0.00,VWS V14.01,2013-01-26 12:25:00,
2013-01-26 07:30:00,6.5,-4.1,30.04,NE,39,1.0,8.0,61,0.00,,---,0.00,VWS V14.01,2013-01-26 12:30:00,
2013-01-26 07:35:00,6.6,-4.3,30.04,NE,41,2.0,7.0,60,0.00,,---,0.00,VWS V14.01,2013-01-26 12:35:00,
2013-01-26 07:40:00,6.7,-4.2,30.04,NW,324,6.0,11.0,60,0.00,,---,0.00,VWS V14.01,2013-01-26 12:40:00,
2013-01-26 07:45:00,6.8,-4.1,30.05,NNE,23,6.0,11.0,60,0.00,,---,0.00,VWS V14.01,2013-01-26 12:45:00,
2013-01-26 07:50:00,6.9,-4.0,30.05,NW,314,9.0,11.0,60,0.00,,---,0.00,VWS V14.01,2013-01-26 12:50:00,
2013-01-26 07:55:00,6.9,-4.0,30.05,NNW,331,1.0,11.0,60,0.00,,---,0.00,VWS V14.01,2013-01-26 12:55:00,
2013-01-26 08:00:00,7.0,-4.3,30.05,NE,39,2.0,11.0,59,0.00,,---,0.00,VWS V14.01,2013-01-26 13:00:00,
2013-01-26 08:05:00,7.2,-4.1,30.06,North,349,1.0,6.0,59,0.00,,---,0.00,VWS V14.01,2013-01-26 13:05:00,
2013-01-26 08:10:00,7.6,-3.7,30.06,North,350,0.0,6.0,59,0.00,,---,0.00,VWS V14.01,2013-01-26 13:10:00,
2013-01-26 08:15:00,8.0,-3.7,30.06,NW,311,0.0,6.0,58,0.00,,---,0.00,VWS V14.01,2013-01-26 13:15:00,
2013-01-26 08:20:00,8.3,-3.4,30.06,NE,43,1.0,6.0,58,0.00,,---,0.00,VWS V14.01,2013-01-26 13:20:00,
2013-01-26 08:25:00,8.5,-3.6,30.06,NNW,336,0.0,6.0,57,0.00,,---,0.00,VWS V14.01,2013-01-26 13:25:00,
2013-01-26 08:30:00,8.8,-3.7,30.06,NNE,22,0.0,8.0,56,0.00,,---,0.00,VWS V14.01,2013-01-26 13:30:00,
2013-01-26 08:35:00,9.1,-3.4,30.06,NNW,339,1.0,4.0,56,0.00,,---,0.00,VWS V14.01,2013-01-26 13:35:00,
2013-01-26 08:40:00,9.3,-3.6,30.06,NE,49,2.0,9.0,55,0.00,,---,0.00,VWS V14.01,2013-01-26 13:40:00,
2013-01-26 08:45:00,9.4,-3.5,30.06,NW,309,2.0,10.0,55,0.00,,---,0.00,VWS V14.01,2013-01-26 13:45:00,
2013-01-26 08:50:00,9.3,-4.0,30.06,NNW,336,8.0,12.0,54,0.00,,---,0.00,VWS V14.01,2013-01-26 13:50:00,
2013-01-26 08:55:00,9.2,-3.7,30.05,WNW,283,1.0,13.0,55,0.00,,---,0.00,VWS V14.01,2013-01-26 13:55:00,
2013-01-26 09:00:00,9.2,-3.7,30.05,NNW,334,6.0,13.0,55,0.00,,---,0.00,VWS V14.01,2013-01-26 14:00:00,
2013-01-26 09:04:00,9.4,-3.9,30.05,North,353,5.0,11.0,54,0.00,,---,0.00,VWS V14.01,2013-01-26 14:04:00,
2013-01-26 09:09:00,9.8,-3.5,30.05,NE,41,6.0,13.0,54,0.00,,---,0.00,VWS V14.01,2013-01-26 14:09:00,
2013-01-26 09:14:00,10.1,-3.6,30.05,North,349,7.0,13.0,53,0.00,,---,0.00,VWS V14.01,2013-01-26 14:14:00,
2013-01-26 09:19:00,10.3,-3.8,30.05,NNW,345,4.0,13.0,52,0.00,,---,0.00,VWS V14.01,2013-01-26 14:19:00,
2013-01-26 09:24:00,10.5,-4.0,30.05,NNW,344,3.0,13.0,51,0.00,,---,0.00,VWS V14.01,2013-01-26 14:24:00,
2013-01-26 09:29:00,10.7,-3.9,30.05,NNE,23,0.0,13.0,51,0.00,,---,0.00,VWS V14.01,2013-01-26 14:29:00,
2013-01-26 09:30:00,12.9,-3.5,30.03,ENE,63,0.0,16.0,47,0.00,,---,0.00,VWS V14.01,2013-01-26 14:30:00,
2013-01-26 09:34:00,11.0,-3.6,30.05,NW,305,2.0,9.0,51,0.00,,---,0.00,VWS V14.01,2013-01-26 14:34:00,
2013-01-26 09:39:00,11.3,-3.3,30.05,NNE,30,1.0,9.0,51,0.00,,---,0.00,VWS V14.01,2013-01-26 14:39:00,
2013-01-26 09:44:00,11.4,-3.6,30.05,NNE,17,3.0,10.0,50,0.00,,---,0.00,VWS V14.01,2013-01-26 14:44:00,
2013-01-26 09:49:00,11.5,-3.5,30.04,ENE,68,6.0,10.0,50,0.00,,---,0.00,VWS V14.01,2013-01-26 14:49:00,
2013-01-26 09:54:00,11.8,-2.8,30.05,North,5,4.0,10.0,51,0.00,,---,0.00,VWS V14.01,2013-01-26 14:54:00,
2013-01-26 09:59:00,11.9,-3.6,30.04,WNW,297,2.0,14.0,49,0.00,,---,0.00,VWS V14.01,2013-01-26 14:59:00,
2013-01-26 10:00:00,13.8,-3.6,30.01,NNE,32,2.0,14.0,45,0.00,,---,0.00,VWS V14.01,2013-01-26 15:00:00,
2013-01-26 10:04:00,11.9,-4.0,30.04,NE,54,0.0,9.0,48,0.00,,---,0.00,VWS V14.01,2013-01-26 15:04:00,
2013-01-26 10:09:00,12.1,-3.8,30.04,NE,49,4.0,16.0,48,0.00,,---,0.00,VWS V14.01,2013-01-26 15:09:00,
2013-01-26 10:14:00,12.2,-3.7,30.04,NNW,340,6.0,16.0,48,0.00,,---,0.00,VWS V14.01,2013-01-26 15:14:00,
2013-01-26 10:19:00,12.4,-3.5,30.04,NW,326,7.0,16.0,48,0.00,,---,0.00,VWS V14.01,2013-01-26 15:19:00,
2013-01-26 10:24:00,12.7,-3.7,30.03,NW,324,1.0,16.0,47,0.00,,---,0.00,VWS V14.01,2013-01-26 15:24:00,
2013-01-26 10:30:00,12.8,-3.6,30.03,NNW,338,1.0,16.0,47,0.00,,---,0.00,VWS V14.01,2013-01-26 15:30:00,
2013-01-26 10:35:00,13.0,-3.4,30.02,NE,46,7.0,8.0,47,0.00,,---,0.00,VWS V14.01,2013-01-26 15:35:00,
2013-01-26 10:40:00,13.0,-3.4,30.02,North,352,1.0,11.0,47,0.00,,---,0.00,VWS V14.01,2013-01-26 15:40:00,
2013-01-26 10:45:00,13.3,-3.2,30.02,NNW,348,0.0,14.0,47,0.00,,---,0.00,VWS V14.01,2013-01-26 15:45:00,
2013-01-26 10:50:00,13.5,-3.4,30.02,NNE,12,1.0,14.0,46,0.00,,---,0.00,VWS V14.01,2013-01-26 15:50:00,
2013-01-26 10:55:00,13.7,-2.8,30.02,NW,320,9.0,14.0,47,0.00,,---,0.00,VWS V14.01,2013-01-26 15:55:00,
2013-01-26 11:00:00,13.9,-3.0,30.01,NNW,338,4.0,14.0,46,0.00,,---,0.00,VWS V14.01,2013-01-26 16:00:00,
2013-01-26 11:05:00,13.8,-3.1,30.01,NE,54,3.0,9.0,46,0.00,,---,0.00,VWS V14.01,2013-01-26 16:05:00,
2013-01-26 11:10:00,13.8,-3.1,30.01,North,8,2.0,9.0,46,0.00,,---,0.00,VWS V14.01,2013-01-26 16:10:00,
2013-01-26 11:15:00,14.3,-3.1,30.01,ENE,65,4.0,9.0,45,0.00,,---,0.00,VWS V14.01,2013-01-26 16:15:00,
2013-01-26 11:20:00,14.4,-3.0,30.01,SSW,207,1.0,14.0,45,0.00,,---,0.00,VWS V14.01,2013-01-26 16:20:00,
2013-01-26 11:25:00,14.5,-3.0,30.00,NNW,347,4.0,14.0,45,0.00,,---,0.00,VWS V14.01,2013-01-26 16:25:00,
2013-01-26 11:30:00,14.8,-2.7,30.00,NNW,340,3.0,14.0,45,0.00,,---,0.00,VWS V14.01,2013-01-26 16:30:00,
2013-01-26 11:35:00,15.0,-3.0,30.00,West,280,2.0,10.0,44,0.00,,---,0.00,VWS V14.01,2013-01-26 16:35:00,
2013-01-26 11:40:00,15.3,-2.2,30.00,North,356,1.0,10.0,45,0.00,,---,0.00,VWS V14.01,2013-01-26 16:40:00,
2013-01-26 11:45:00,15.3,-2.7,30.00,NW,322,7.0,12.0,44,0.00,,---,0.00,VWS V14.01,2013-01-26 16:45:00,
2013-01-26 11:50:00,15.4,-1.7,29.99,NNW,339,3.0,12.0,46,0.00,,---,0.00,VWS V14.01,2013-01-26 16:50:00,
2013-01-26 11:55:00,15.5,-1.6,29.99,NE,44,0.0,12.0,46,0.00,,---,0.00,VWS V14.01,2013-01-26 16:55:00,
2013-01-26 12:00:00,16.0,-1.1,29.99,NNW,335,3.0,12.0,46,0.00,,---,0.00,VWS V14.01,2013-01-26 17:00:00,
2013-01-26 12:05:00,16.0,-1.6,29.98,NW,316,1.0,10.0,45,0.00,,---,0.00,VWS V14.01,2013-01-26 17:05:00,
2013-01-26 12:10:00,16.0,-1.1,29.98,NW,314,1.0,10.0,46,0.00,,---,0.00,VWS V14.01,2013-01-26 17:10:00,
2013-01-26 12:15:00,16.4,-1.2,29.98,NW,324,3.0,11.0,45,0.00,,---,0.00,VWS V14.01,2013-01-26 17:15:00,
2013-01-26 12:20:00,16.4,-0.8,29.98,NW,321,1.0,11.0,46,0.00,,---,0.00,VWS V14.01,2013-01-26 17:20:00,
2013-01-26 12:25:00,16.7,-1.4,29.98,NNW,342,1.0,11.0,44,0.00,,---,0.00,VWS V14.01,2013-01-26 17:25:00,
2013-01-26 12:30:00,17.0,-1.1,29.98,West,271,6.0,11.0,44,0.00,,---,0.00,VWS V14.01,2013-01-26 17:30:00,
2013-01-26 12:35:00,17.1,-1.0,29.98,NNW,328,2.0,10.0,44,0.00,,---,0.00,VWS V14.01,2013-01-26 17:35:00,
2013-01-26 12:40:00,17.2,-0.5,29.98,NW,324,5.0,10.0,45,0.00,,---,0.00,VWS V14.01,2013-01-26 17:40:00,
2013-01-26 12:45:00,16.9,-2.7,29.98,NNW,335,9.0,15.0,41,0.00,,---,0.00,VWS V14.01,2013-01-26 17:45:00,
2013-01-26 12:50:00,16.6,-2.5,29.98,North,360,6.0,15.0,42,0.00,,---,0.00,VWS V14.01,2013-01-26 17:50:00,
2013-01-26 12:55:00,16.8,-2.3,29.97,North,351,4.0,16.0,42,0.00,,---,0.00,VWS V14.01,2013-01-26 17:55:00,
2013-01-26 13:00:00,16.6,-2.5,29.97,SW,226,3.0,16.0,42,0.00,,---,0.00,VWS V14.01,2013-01-26 18:00:00,
2013-01-26 13:05:00,16.8,-1.8,29.97,NW,315,2.0,11.0,43,0.00,,---,0.00,VWS V14.01,2013-01-26 18:05:00,
2013-01-26 13:10:00,17.1,-2.0,29.97,NW,310,4.0,14.0,42,0.00,,---,0.00,VWS V14.01,2013-01-26 18:10:00,
2013-01-26 13:15:00,17.0,-2.1,29.97,NNW,341,3.0,15.0,42,0.00,,---,0.00,VWS V14.01,2013-01-26 18:15:00,
2013-01-26 13:20:00,17.1,-2.5,29.97,NNW,343,6.0,15.0,41,0.00,,---,0.00,VWS V14.01,2013-01-26 18:20:00,
2013-01-26 13:25:00,17.3,-2.3,29.97,NE,43,3.0,15.0,41,0.00,,---,0.00,VWS V14.01,2013-01-26 18:25:00,
2013-01-26 13:30:00,17.4,-1.8,29.97,NNW,334,6.0,15.0,42,0.00,,---,0.00,VWS V14.01,2013-01-26 18:30:00,
2013-01-26 13:34:00,17.3,-1.9,29.97,NNW,338,0.0,12.0,42,0.00,,---,0.00,VWS V14.01,2013-01-26 18:34:00,
2013-01-26 13:39:00,17.5,-1.7,29.96,NNW,338,5.0,12.0,42,0.00,,---,0.00,VWS V14.01,2013-01-26 18:39:00,
2013-01-26 13:44:00,17.5,-2.2,29.96,NW,319,7.0,14.0,41,0.00,,---,0.00,VWS V14.01,2013-01-26 18:44:00,
2013-01-26 13:49:00,17.3,-2.9,29.96,NNW,331,6.0,14.0,40,0.00,,---,0.00,VWS V14.01,2013-01-26 18:49:00,
2013-01-26 13:54:00,17.5,-2.7,29.96,NNW,329,2.0,14.0,40,0.00,,---,0.00,VWS V14.01,2013-01-26 18:54:00,
2013-01-26 13:59:00,17.8,-2.4,29.96,North,357,6.0,17.0,40,0.00,,---,0.00,VWS V14.01,2013-01-26 18:59:00,
2013-01-26 14:00:00,17.5,-4.9,29.96,North,354,1.0,25.0,36,0.00,,---,0.00,VWS V14.01,2013-01-26 19:00:00,
2013-01-26 14:04:00,17.9,-2.3,29.96,WNW,286,4.0,8.0,40,0.00,,---,0.00,VWS V14.01,2013-01-26 19:04:00,
2013-01-26 14:09:00,18.1,-3.2,29.95,ENE,57,4.0,13.0,38,0.00,,---,0.00,VWS V14.01,2013-01-26 19:09:00,
2013-01-26 14:14:00,18.5,-2.9,29.95,NNE,23,1.0,13.0,38,0.00,,---,0.00,VWS V14.01,2013-01-26 19:14:00,
2013-01-26 14:19:00,18.6,-3.3,29.96,NNW,347,4.0,14.0,37,0.00,,---,0.00,VWS V14.01,2013-01-26 19:19:00,
2013-01-26 14:24:00,18.6,-3.9,29.95,NNW,337,7.0,18.0,36,0.00,,---,0.00,VWS V14.01,2013-01-26 19:24:00,
2013-01-26 14:29:00,18.3,-4.2,29.95,NW,310,5.0,18.0,36,0.00,,---,0.00,VWS V14.01,2013-01-26 19:29:00,
2013-01-26 14:30:00,17.3,-3.9,29.96,NW,314,3.0,20.0,38,0.00,,---,0.00,VWS V14.01,2013-01-26 19:30:00,
2013-01-26 14:34:00,18.1,-4.9,29.95,NNE,18,5.0,19.0,35,0.00,,---,0.00,VWS V14.01,2013-01-26 19:34:00,
2013-01-26 14:39:00,17.9,-5.1,29.95,WNW,301,6.0,25.0,35,0.00,,---,0.00,VWS V14.01,2013-01-26 19:39:00,
2013-01-26 14:44:00,17.7,-5.3,29.95,NNW,346,8.0,25.0,35,0.00,,---,0.00,VWS V14.01,2013-01-26 19:44:00,
2013-01-26 14:49:00,17.6,-4.8,29.95,NW,316,5.0,25.0,36,0.00,,---,0.00,VWS V14.01,2013-01-26 19:49:00,
2013-01-26 14:54:00,17.5,-4.3,29.95,NNW,342,1.0,25.0,37,0.00,,---,0.00,VWS V14.01,2013-01-26 19:54:00,
2013-01-26 14:59:00,17.6,-4.2,29.96,NW,309,17.0,25.0,37,0.00,,---,0.00,VWS V14.01,2013-01-26 19:59:00,
2013-01-26 15:00:00,16.6,-4.0,29.98,North,1,2.0,16.0,39,0.00,,---,0.00,VWS V14.01,2013-01-26 20:00:00,
2013-01-26 15:04:00,17.5,-3.8,29.96,NNW,329,3.0,6.0,38,0.00,,---,0.00,VWS V14.01,2013-01-26 20:04:00,
2013-01-26 15:09:00,17.5,-3.8,29.96,NNW,346,11.0,11.0,38,0.00,,---,0.00,VWS V14.01,2013-01-26 20:09:00,
2013-01-26 15:14:00,17.4,-3.8,29.96,NW,316,3.0,15.0,38,0.00,,---,0.00,VWS V14.01,2013-01-26 20:14:00,
2013-01-26 15:19:00,17.4,-3.8,29.96,NW,307,4.0,15.0,38,0.00,,---,0.00,VWS V14.01,2013-01-26 20:19:00,
2013-01-26 15:24:00,17.3,-4.5,29.96,NNW,327,3.0,20.0,37,0.00,,---,0.00,VWS V14.01,2013-01-26 20:24:00,
2013-01-26 15:29:00,17.3,-3.9,29.96,NW,312,6.0,20.0,38,0.00,,---,0.00,VWS V14.01,2013-01-26 20:29:00,
2013-01-26 15:30:00,16.1,-2.5,29.99,North,349,0.0,14.0,43,0.00,,---,0.00,VWS V14.01,2013-01-26 20:30:00,
2013-01-26 15:34:00,17.3,-3.4,29.96,NNE,32,3.0,12.0,39,0.00,,---,0.00,VWS V14.01,2013-01-26 20:34:00,
2013-01-26 15:39:00,17.1,-3.6,29.96,NNW,331,2.0,12.0,39,0.00,,---,0.00,VWS V14.01,2013-01-26 20:39:00,
2013-01-26 15:44:00,16.9,-4.3,29.97,NE,42,0.0,16.0,38,0.00,,---,0.00,VWS V14.01,2013-01-26 20:44:00,
2013-01-26 15:49:00,16.8,-3.8,29.97,NNW,338,2.0,16.0,39,0.00,,---,0.00,VWS V14.01,2013-01-26 20:49:00,
2013-01-26 15:54:00,16.7,-3.9,29.98,NW,321,0.0,16.0,39,0.00,,---,0.00,VWS V14.01,2013-01-26 20:54:00,
2013-01-26 15:59:00,16.6,-3.5,29.98,North,4,0.0,16.0,40,0.00,,---,0.00,VWS V14.01,2013-01-26 20:59:00,
2013-01-26 16:00:00,15.4,-2.1,30.00,NNW,335,1.0,11.0,45,0.00,,---,0.00,VWS V14.01,2013-01-26 21:00:00,
2013-01-26 16:04:00,16.6,-3.5,29.98,SE,131,1.0,4.0,40,0.00,,---,0.00,VWS V14.01,2013-01-26 21:04:00,
2013-01-26 16:09:00,16.6,-3.5,29.98,NW,322,5.0,14.0,40,0.00,,---,0.00,VWS V14.01,2013-01-26 21:09:00,
2013-01-26 16:14:00,16.6,-3.5,29.99,NW,320,1.0,14.0,40,0.00,,---,0.00,VWS V14.01,2013-01-26 21:14:00,
2013-01-26 16:19:00,16.5,-3.1,29.99,WNW,302,1.0,14.0,41,0.00,,---,0.00,VWS V14.01,2013-01-26 21:19:00,
2013-01-26 16:24:00,16.3,-2.8,29.99,NW,322,1.0,14.0,42,0.00,,---,0.00,VWS V14.01,2013-01-26 21:24:00,
2013-01-26 16:29:00,16.2,-2.8,29.99,NNW,333,1.0,14.0,42,0.00,,---,0.00,VWS V14.01,2013-01-26 21:29:00,
2013-01-26 16:30:00,14.7,-2.3,30.01,North,8,1.0,13.0,46,0.00,,---,0.00,VWS V14.01,2013-01-26 21:30:00,
2013-01-26 16:34:00,16.0,-2.5,30.00,North,349,2.0,2.0,43,0.00,,---,0.00,VWS V14.01,2013-01-26 21:34:00,
2013-01-26 16:39:00,15.8,-3.2,30.00,NNW,328,4.0,7.0,42,0.00,,---,0.00,VWS V14.01,2013-01-26 21:39:00,
2013-01-26 16:44:00,15.8,-3.2,30.00,NNW,341,6.0,11.0,42,0.00,,---,0.00,VWS V14.01,2013-01-26 21:44:00,
2013-01-26 16:49:00,15.7,-2.8,30.00,NNW,340,5.0,11.0,43,0.00,,---,0.00,VWS V14.01,2013-01-26 21:49:00,
2013-01-26 16:54:00,15.6,-2.4,30.00,NW,324,1.0,11.0,44,0.00,,---,0.00,VWS V14.01,2013-01-26 21:54:00,
2013-01-26 16:59:00,15.5,-2.0,30.00,NE,44,0.0,11.0,45,0.00,,---,0.00,VWS V14.01,2013-01-26 21:59:00,
2013-01-26 17:00:00,14.1,-2.4,30.01,WNW,300,6.0,18.0,47,0.00,,---,0.00,VWS V14.01,2013-01-26 22:00:00,
2013-01-26 17:04:00,15.4,-2.1,30.00,ENE,60,0.0,3.0,45,0.00,,---,0.00,VWS V14.01,2013-01-26 22:04:00,
2013-01-26 17:09:00,15.2,-2.3,30.01,NE,48,0.0,6.0,45,0.00,,---,0.00,VWS V14.01,2013-01-26 22:09:00,
2013-01-26 17:14:00,15.1,-2.4,30.01,NNE,29,3.0,11.0,45,0.00,,---,0.00,VWS V14.01,2013-01-26 22:14:00,
2013-01-26 17:19:00,15.1,-2.4,30.01,WNW,297,0.0,13.0,45,0.00,,---,0.00,VWS V14.01,2013-01-26 22:19:00,
2013-01-26 17:24:00,14.9,-2.6,30.01,NW,315,0.0,13.0,45,0.00,,---,0.00,VWS V14.01,2013-01-26 22:24:00,
2013-01-26 17:29:00,14.8,-2.7,30.01,NNW,334,1.0,13.0,45,0.00,,---,0.00,VWS V14.01,2013-01-26 22:29:00,
2013-01-26 17:30:00,13.4,-2.2,30.02,NNW,333,0.0,19.0,49,0.00,,---,0.00,VWS V14.01,2013-01-26 22:30:00,
2013-01-26 17:34:00,14.7,-2.3,30.01,NW,307,2.0,12.0,46,0.00,,---,0.00,VWS V14.01,2013-01-26 22:34:00,
2013-01-26 17:39:00,14.6,-2.4,30.01,NW,310,2.0,12.0,46,0.00,,---,0.00,VWS V14.01,2013-01-26 22:39:00,
2013-01-26 17:44:00,14.5,-2.0,30.01,NW,311,1.0,18.0,47,0.00,,---,0.00,VWS V14.01,2013-01-26 22:44:00,
2013-01-26 17:49:00,14.4,-2.6,30.01,NW,322,8.0,18.0,46,0.00,,---,0.00,VWS V14.01,2013-01-26 22:49:00,
2013-01-26 17:54:00,14.3,-2.2,30.01,NW,307,5.0,18.0,47,0.00,,---,0.00,VWS V14.01,2013-01-26 22:54:00,
2013-01-26 17:59:00,14.1,-2.4,30.01,WNW,300,3.0,18.0,47,0.00,,---,0.00,VWS V14.01,2013-01-26 22:59:00,
2013-01-26 18:00:00,12.6,-1.3,30.03,NNW,336,0.0,15.0,53,0.00,,---,0.00,VWS V14.01,2013-01-26 23:00:00,
2013-01-26 18:04:00,14.0,-2.5,30.01,NW,321,2.0,11.0,47,0.00,,---,0.00,VWS V14.01,2013-01-26 23:04:00,
2013-01-26 18:09:00,13.9,-2.6,30.01,NNW,345,13.0,16.0,47,0.00,,---,0.00,VWS V14.01,2013-01-26 23:09:00,
2013-01-26 18:14:00,13.8,-2.2,30.02,NW,318,5.0,18.0,48,0.00,,---,0.00,VWS V14.01,2013-01-26 23:14:00,
2013-01-26 18:19:00,13.6,-2.4,30.02,West,274,1.0,18.0,48,0.00,,---,0.00,VWS V14.01,2013-01-26 23:19:00,
2013-01-26 18:24:00,13.6,-2.4,30.02,NW,311,8.0,19.0,48,0.00,,---,0.00,VWS V14.01,2013-01-26 23:24:00,
2013-01-26 18:29:00,13.5,-2.1,30.02,NNW,342,4.0,19.0,49,0.00,,---,0.00,VWS V14.01,2013-01-26 23:29:00,
2013-01-26 18:30:00,12.2,-1.2,30.04,SW,223,2.0,16.0,54,0.00,,---,0.00,VWS V14.01,2013-01-26 23:30:00,
2013-01-26 18:34:00,13.3,-1.9,30.03,North,1,1.0,3.0,50,0.00,,---,0.00,VWS V14.01,2013-01-26 23:34:00,
2013-01-26 18:39:00,13.1,-2.0,30.02,NNE,20,0.0,9.0,50,0.00,,---,0.00,VWS V14.01,2013-01-26 23:39:00,
2013-01-26 18:44:00,12.9,-1.8,30.02,NNW,333,4.0,9.0,51,0.00,,---,0.00,VWS V14.01,2013-01-26 23:44:00,
2013-01-26 18:49:00,12.9,-1.8,30.02,NW,316,1.0,15.0,51,0.00,,---,0.00,VWS V14.01,2013-01-26 23:49:00,
2013-01-26 18:54:00,12.8,-1.9,30.02,NW,307,1.0,15.0,51,0.00,,---,0.00,VWS V14.01,2013-01-26 23:54:00,
2013-01-26 18:59:00,12.6,-1.7,30.03,NNW,335,0.0,15.0,52,0.00,,---,0.00,VWS V14.01,2013-01-26 23:59:00,
2013-01-26 19:00:00,11.9,-1.9,30.04,WNW,298,7.0,24.0,53,0.00,,---,0.00,VWS V14.01,2013-01-27 00:00:00,
2013-01-26 19:04:00,12.5,-1.4,30.03,NE,49,1.0,8.0,53,0.00,,---,0.00,VWS V14.01,2013-01-27 00:04:00,
2013-01-26 19:09:00,12.4,-1.1,30.03,NW,326,3.0,8.0,54,0.00,,---,0.00,VWS V14.01,2013-01-27 00:09:00,
2013-01-26 19:14:00,12.3,-1.2,30.03,NNW,347,5.0,10.0,54,0.00,,---,0.00,VWS V14.01,2013-01-27 00:14:00,
2013-01-26 19:19:00,12.3,-1.2,30.03,NNW,338,14.0,14.0,54,0.00,,---,0.00,VWS V14.01,2013-01-27 00:19:00,
2013-01-26 19:24:00,12.2,-1.3,30.03,North,352,1.0,16.0,54,0.00,,---,0.00,VWS V14.01,2013-01-27 00:24:00,
2013-01-26 19:29:00,12.2,-1.3,30.03,NNW,345,2.0,16.0,54,0.00,,---,0.00,VWS V14.01,2013-01-27 00:29:00,
2013-01-26 19:30:00,11.8,-2.0,30.05,NNW,338,4.0,21.0,53,0.00,,---,0.00,VWS V14.01,2013-01-27 00:30:00,
2013-01-26 19:34:00,12.2,-1.3,30.03,NW,318,3.0,11.0,54,0.00,,---,0.00,VWS V14.01,2013-01-27 00:34:00,
2013-01-26 19:39:00,12.1,-1.7,30.03,NW,308,4.0,13.0,53,0.00,,---,0.00,VWS V14.01,2013-01-27 00:39:00,
2013-01-26 19:44:00,12.0,-1.4,30.04,NNW,329,3.0,14.0,54,0.00,,---,0.00,VWS V14.01,2013-01-27 00:44:00,
2013-01-26 19:49:00,12.0,-1.4,30.04,NNW,328,2.0,17.0,54,0.00,,---,0.00,VWS V14.01,2013-01-27 00:49:00,
2013-01-26 19:54:00,12.0,-1.4,30.04,NNW,335,7.0,17.0,54,0.00,,---,0.00,VWS V14.01,2013-01-27 00:54:00,
2013-01-26 19:59:00,11.9,-1.5,30.04,NNW,347,3.0,24.0,54,0.00,,---,0.00,VWS V14.01,2013-01-27 00:59:00,
2013-01-26 20:00:00,11.4,-2.8,30.05,NNW,334,3.0,19.0,52,0.00,,---,0.00,VWS V14.01,2013-01-27 01:00:00,
2013-01-26 20:04:00,11.9,-1.9,30.04,NNW,331,4.0,16.0,53,0.00,,---,0.00,VWS V14.01,2013-01-27 01:04:00,
2013-01-26 20:09:00,11.9,-1.5,30.04,North,350,10.0,17.0,54,0.00,,---,0.00,VWS V14.01,2013-01-27 01:09:00,
2013-01-26 20:14:00,11.9,-1.9,30.04,NW,307,6.0,21.0,53,0.00,,---,0.00,VWS V14.01,2013-01-27 01:14:00,
2013-01-26 20:19:00,11.9,-2.3,30.04,NNW,334,2.0,21.0,52,0.00,,---,0.00,VWS V14.01,2013-01-27 01:19:00,
2013-01-26 20:24:00,11.8,-2.0,30.04,NW,316,16.0,21.0,53,0.00,,---,0.00,VWS V14.01,2013-01-27 01:24:00,
2013-01-26 20:29:00,11.8,-2.0,30.05,North,352,4.0,21.0,53,0.00,,---,0.00,VWS V14.01,2013-01-27 01:29:00,
2013-01-26 20:30:00,11.3,-3.3,30.06,WNW,291,3.0,18.0,51,0.00,,---,0.00,VWS V14.01,2013-01-27 01:30:00,
2013-01-26 20:34:00,11.8,-2.0,30.05,WNW,303,0.0,4.0,53,0.00,,---,0.00,VWS V14.01,2013-01-27 01:34:00,
2013-01-26 20:39:00,11.8,-1.6,30.05,East,96,1.0,13.0,54,0.00,,---,0.00,VWS V14.01,2013-01-27 01:39:00,
2013-01-26 20:44:00,11.8,-1.6,30.05,NW,319,5.0,13.0,54,0.00,,---,0.00,VWS V14.01,2013-01-27 01:44:00,
2013-01-26 20:49:00,11.7,-1.7,30.05,NNW,336,4.0,13.0,54,0.00,,---,0.00,VWS V14.01,2013-01-27 01:49:00,
2013-01-26 20:53:00,11.6,-1.8,30.05,NNE,25,0.0,14.0,54,0.00,,---,0.00,VWS V14.01,2013-01-27 01:53:00,
2013-01-26 20:58:00,11.5,-2.3,30.05,NW,314,3.0,16.0,53,0.00,,---,0.00,VWS V14.01,2013-01-27 01:58:00,
2013-01-26 21:00:00,11.2,-4.2,30.07,NNW,340,3.0,18.0,49,0.00,,---,0.00,VWS V14.01,2013-01-27 02:00:00,
2013-01-26 21:03:00,11.4,-2.4,30.05,NW,309,7.0,11.0,53,0.00,,---,0.00,VWS V14.01,2013-01-27 02:03:00,
2013-01-26 21:08:00,11.4,-2.4,30.05,North,355,3.0,17.0,53,0.00,,---,0.00,VWS V14.01,2013-01-27 02:08:00,
2013-01-26 21:13:00,11.4,-2.4,30.06,North,349,2.0,17.0,53,0.00,,---,0.00,VWS V14.01,2013-01-27 02:13:00,
2013-01-26 21:18:00,11.4,-2.4,30.06,NNW,338,3.0,17.0,53,0.00,,---,0.00,VWS V14.01,2013-01-27 02:18:00,
2013-01-26 21:23:00,11.4,-2.8,30.06,WNW,302,3.0,18.0,52,0.00,,---,0.00,VWS V14.01,2013-01-27 02:23:00,
2013-01-26 21:28:00,11.3,-2.9,30.06,NNE,29,4.0,18.0,52,0.00,,---,0.00,VWS V14.01,2013-01-27 02:28:00,
2013-01-26 21:30:00,11.1,-4.7,30.07,NW,322,2.0,18.0,48,0.00,,---,0.00,VWS V14.01,2013-01-27 02:30:00,
2013-01-26 21:33:00,11.3,-3.3,30.07,NNE,12,1.0,12.0,51,0.00,,---,0.00,VWS V14.01,2013-01-27 02:33:00,
2013-01-26 21:38:00,11.3,-3.7,30.07,NW,304,4.0,16.0,50,0.00,,---,0.00,VWS V14.01,2013-01-27 02:38:00,
2013-01-26 21:43:00,11.2,-4.2,30.07,NW,309,3.0,16.0,49,0.00,,---,0.00,VWS V14.01,2013-01-27 02:43:00,
2013-01-26 21:48:00,11.2,-4.2,30.06,NNW,341,6.0,16.0,49,0.00,,---,0.00,VWS V14.01,2013-01-27 02:48:00,
2013-01-26 21:53:00,11.2,-4.2,30.06,NNW,345,15.0,18.0,49,0.00,,---,0.00,VWS V14.01,2013-01-27 02:53:00,
2013-01-26 21:58:00,11.2,-3.8,30.07,WNW,288,10.0,18.0,50,0.00,,---,0.00,VWS V14.01,2013-01-27 02:58:00,
2013-01-26 22:00:00,11.3,-3.7,30.08,NW,307,9.0,27.0,50,0.00,,---,0.00,VWS V14.01,2013-01-27 03:00:00,
2013-01-26 22:03:00,11.2,-4.2,30.07,NNE,23,0.0,7.0,49,0.00,,---,0.00,VWS V14.01,2013-01-27 03:03:00,
2013-01-26 22:08:00,11.2,-4.2,30.07,WNW,302,8.0,10.0,49,0.00,,---,0.00,VWS V14.01,2013-01-27 03:08:00,
2013-01-26 22:13:00,11.1,-4.3,30.07,NE,55,3.0,17.0,49,0.00,,---,0.00,VWS V14.01,2013-01-27 03:13:00,
2013-01-26 22:18:00,11.1,-4.3,30.07,NNE,32,5.0,17.0,49,0.00,,---,0.00,VWS V14.01,2013-01-27 03:18:00,
2013-01-26 22:23:00,11.1,-4.3,30.07,North,6,2.0,18.0,49,0.00,,---,0.00,VWS V14.01,2013-01-27 03:23:00,
2013-01-26 22:28:00,11.1,-4.3,30.07,WNW,290,5.0,18.0,49,0.00,,---,0.00,VWS V14.01,2013-01-27 03:28:00,
2013-01-26 22:30:00,11.4,-2.8,30.08,NNW,327,11.0,17.0,52,0.00,,---,0.00,VWS V14.01,2013-01-27 03:30:00,
2013-01-26 22:33:00,11.1,-4.3,30.07,West,262,8.0,13.0,49,0.00,,---,0.00,VWS V14.01,2013-01-27 03:33:00,
2013-01-26 22:38:00,11.1,-4.3,30.07,NW,307,9.0,19.0,49,0.00,,---,0.00,VWS V14.01,2013-01-27 03:38:00,
2013-01-26 22:43:00,11.2,-4.7,30.07,North,1,14.0,27.0,48,0.00,,---,0.00,VWS V14.01,2013-01-27 03:43:00,
2013-01-26 22:49:00,11.2,-4.2,30.07,NW,308,3.0,27.0,49,0.00,,---,0.00,VWS V14.01,2013-01-27 03:49:00,
2013-01-26 22:54:00,11.3,-4.1,30.07,NNW,330,12.0,27.0,49,0.00,,---,0.00,VWS V14.01,2013-01-27 03:54:00,
2013-01-26 22:59:00,11.3,-3.7,30.08,NW,324,6.0,27.0,50,0.00,,---,0.00,VWS V14.01,2013-01-27 03:59:00,
2013-01-26 23:00:00,11.4,-2.8,30.08,NNW,346,6.0,18.0,52,0.00,,---,0.00,VWS V14.01,2013-01-27 04:00:00,
2013-01-26 23:04:00,11.3,-3.7,30.08,NW,309,17.0,17.0,50,0.00,,---,0.00,VWS V14.01,2013-01-27 04:04:00,
2013-01-26 23:09:00,11.4,-3.6,30.08,NNW,340,8.0,17.0,50,0.00,,---,0.00,VWS V14.01,2013-01-27 04:09:00,
2013-01-26 23:14:00,11.4,-3.2,30.08,NNW,347,10.0,17.0,51,0.00,,---,0.00,VWS V14.01,2013-01-27 04:14:00,
2013-01-26 23:19:00,11.4,-3.2,30.08,NW,324,2.0,17.0,51,0.00,,---,0.00,VWS V14.01,2013-01-27 04:19:00,
2013-01-26 23:24:00,11.4,-3.2,30.08,NNW,330,4.0,17.0,51,0.00,,---,0.00,VWS V14.01,2013-01-27 04:24:00,
2013-01-26 23:29:00,11.3,-2.9,30.08,WSW,256,3.0,17.0,52,0.00,,---,0.00,VWS V14.01,2013-01-27 04:29:00,
2013-01-26 23:30:00,11.7,-2.1,30.08,NW,322,17.0,18.0,53,0.00,,---,0.00,VWS V14.01,2013-01-27 04:30:00,
2013-01-26 23:34:00,11.3,-3.3,30.08,NW,305,4.0,11.0,51,0.00,,---,0.00,VWS V14.01,2013-01-27 04:34:00,
2013-01-26 23:39:00,11.3,-3.3,30.08,NW,319,5.0,11.0,51,0.00,,---,0.00,VWS V14.01,2013-01-27 04:39:00,
2013-01-26 23:44:00,11.3,-3.3,30.08,WNW,301,6.0,18.0,51,0.00,,---,0.00,VWS V14.01,2013-01-27 04:44:00,
2013-01-26 23:49:00,11.3,-3.3,30.08,West,269,4.0,18.0,51,0.00,,---,0.00,VWS V14.01,2013-01-27 04:49:00,
2013-01-26 23:53:00,11.4,-2.8,30.08,NE,55,1.0,18.0,52,0.00,,---,0.00,VWS V14.01,2013-01-27 04:53:00,
2013-01-26 23:58:00,11.4,-2.8,30.08,NNW,330,4.0,18.0,52,0.00,,---,0.00,VWS V14.01,2013-01-27 04:58:00,